Blythe, CA

7:17 PM PST on December 14, 2017 (GMT -0800)
Blythe

Weather History for KBLH - March, 2014

Change the Weather History Date:

Monday, March 10, 2014

  Actual Average Record
Temperature  
Mean Temperature 66 °F -  
Max Temperature 86 °F 76 °F 95 °F (1997)
Min Temperature 48 °F 49 °F 42 °F (1974)
Cooling Degree Days 1    
Growing Degree Days 16 (Base 50)    
Moisture  
Dew Point 21 °F    
Average Humidity 18    
Maximum Humidity 31    
Minimum Humidity 7    
Precipitation  
Precipitation 0.00 in - - ()
Sea Level Pressure  
Sea Level Pressure 29.97 in    
Wind  
Wind Speed 5 mph (South)    
Max Wind Speed 12 mph    
Max Gust Speed -    
Visibility 10 miles    
Events      
Averages and records for this station are not official NWS values.
T = Trace of Precipitation, MM = Missing Value Source: NWS Daily Summary

Daily Weather History Graph

Daily Weather History Graph

Search for Another Location

Airport or City:

Trip Planner

Search our weather history database for the weather conditions in past years. The results will help you decide how hot, cold, wet, or windy it might be!

Date:

Astronomy

Mar. 10, 2014 Rise Set
Actual Time 6:55 AM PDT 6:42 PM PDT
Civil Twilight 6:30 AM PDT 7:07 PM PDT
Nautical Twilight 6:02 AM PDT 7:36 PM PDT
Astronomical Twilight 5:33 AM PDT 8:05 PM PDT
Moon 1:41 PM PDT (3/10) 2:59 AM PDT (3/10)
Length of Visible Light 12h 36m
Length of Day
11h 47m
Waxing Gibbous, 71% of the Moon is Illuminated
Mar 10
Waxing Gibbous
Mar 16
Full
Mar 23
Last Quarter
Mar 30
New
Apr 7
First Quarter

Hourly Weather History & Observations

Time (PDT) Temp. Dew Point Humidity Pressure Visibility Wind Dir Wind Speed Gust Speed Precip Events Conditions
12:52 AM 61.0 °F 18.0 °F 19% 30.05 in 10.0 mi SW 5.8 mph - N/A   Clear
1:52 AM 61.0 °F 17.1 °F 18% 30.04 in 10.0 mi SW 9.2 mph - N/A   Clear
2:52 AM 57.9 °F 16.0 °F 19% 30.03 in 10.0 mi Calm Calm - N/A   Clear
3:52 AM 55.9 °F 16.0 °F 21% 30.02 in 10.0 mi Calm Calm - N/A   Clear
4:52 AM 48.9 °F 15.1 °F 26% 30.02 in 10.0 mi North 5.8 mph - N/A   Clear
5:52 AM 48.9 °F 16.0 °F 27% 30.03 in 10.0 mi NNW 5.8 mph - N/A   Clear
6:52 AM 48.0 °F 17.1 °F 29% 30.04 in 10.0 mi North 5.8 mph - N/A   Clear
7:52 AM 52.0 °F 21.9 °F 31% 30.06 in 10.0 mi North 5.8 mph - N/A   Clear
8:52 AM 61.0 °F 21.0 °F 21% 30.07 in 10.0 mi Calm Calm - N/A   Clear
9:52 AM 64.9 °F 21.9 °F 19% 30.07 in 10.0 mi Calm Calm - N/A   Clear
10:52 AM 72.0 °F 26.1 °F 18% 30.07 in 10.0 mi Calm Calm - N/A   Clear
11:52 AM 75.0 °F 30.0 °F 19% 30.05 in 10.0 mi Calm Calm - N/A   Clear
12:52 PM 80.1 °F 26.1 °F 14% 30.01 in 10.0 mi SE 9.2 mph - N/A   Clear
1:52 PM 82.9 °F 19.0 °F 9% 29.96 in 10.0 mi South 6.9 mph - N/A   Clear
2:52 PM 84.9 °F 18.0 °F 8% 29.93 in 10.0 mi SSE 11.5 mph - N/A   Clear
3:52 PM 84.9 °F 19.9 °F 9% 29.90 in 10.0 mi SE 9.2 mph - N/A   Clear
4:52 PM 84.9 °F 21.0 °F 10% 29.88 in 10.0 mi SE 6.9 mph - N/A   Clear
5:52 PM 84.9 °F 14.0 °F 7% 29.87 in 10.0 mi SSW 9.2 mph - N/A   Clear
6:52 PM 79.0 °F 25.0 °F 14% 29.87 in 10.0 mi South 6.9 mph - N/A   Clear
7:52 PM 73.9 °F 28.0 °F 18% 29.88 in 10.0 mi South 8.1 mph - N/A   Clear
8:52 PM 72.0 °F 21.0 °F 15% 29.88 in 10.0 mi SSW 4.6 mph - N/A   Clear
9:52 PM 73.0 °F 23.0 °F 15% 29.88 in 10.0 mi SE 6.9 mph - N/A   Clear
10:52 PM 66.0 °F 28.9 °F 25% 29.89 in 10.0 mi SSE 3.5 mph - N/A   Clear
11:52 PM 66.9 °F 34.0 °F 30% 29.89 in 10.0 mi South 8.1 mph - N/A   Clear